Theta_e
306 308 307 308 308 306 306 307 310 310 310 311 310 312 311 311 310 310 312 311 311 312 311 314 313 318 340 344 345 346 343 346 347 346 346 344 343 343 342 341 340 339 338 337 336 337 337 337 337 337 337 337 337 337 337 337 338 338 338 338 338 336 335 334 334 336 335 336 337 337 338 338 338 338 338 338 338 338 338 337 337 338 338 338 338 338
307 308 308 308 308 307 306 308 310 310 309 310 310 311 309 310 311 310 312 311 311 312 311 315 313 318 338 343 342 344 344 346 346 346 346 344 343 343 342 342 340 338 337 337 337 336 336 336 337 336 337 337 336 337 337 337 337 338 338 338 337 335 335 335 335 336 336 336 337 337 337 338 337 337 337 337 337 337 337 337 337 337 337 337 337 337
307 308 308 308 310 308 308 310 310 310 310 309 309 310 310 311 311 309 310 311 310 311 313 313 311 323 337 339 340 342 344 344 343 344 344 343 343 343 342 342 340 339 339 338 337 336 336 336 336 336 336 336 336 337 337 337 337 337 338 338 337 336 335 336 336 336 337 336 337 337 337 337 336 336 336 337 336 336 336 336 337 336 336 337 336 336
308 308 308 310 311 308 308 310 310 310 311 309 310 313 312 311 311 311 311 310 311 315 316 313 320 336 339 338 340 339 340 342 340 341 341 340 342 341 341 340 339 340 340 339 338 337 337 336 336 336 336 336 336 336 337 337 337 337 338 338 337 337 336 336 337 337 337 337 336 336 336 336 336 335 336 336 335 335 335 335 335 335 335 335 335 334
307 308 308 310 310 309 309 309 309 310 311 310 310 314 314 311 311 314 312 311 315 320 321 319 327 339 339 339 341 339 339 341 339 339 340 340 340 339 339 338 338 339 339 339 339 338 337 337 336 336 336 336 336 336 337 336 337 337 337 337 337 336 336 337 337 336 336 336 336 336 335 335 334 334 334 334 332 332 333 333 333 333 334 334 334 332
307 307 308 309 310 310 309 309 309 309 311 311 310 311 312 312 312 313 312 311 312 316 321 320 321 334 341 340 340 339 340 341 338 339 341 340 340 339 338 338 337 337 337 338 338 337 337 337 336 336 336 336 336 336 337 337 337 337 336 337 336 336 336 336 336 336 336 335 335 335 334 333 331 331 331 331 331 330 331 331 331 331 332 332 331 331
306 306 307 309 310 310 309 309 309 309 311 312 313 311 310 312 312 311 311 312 314 314 318 316 315 331 341 340 338 338 340 341 339 338 339 339 340 339 338 338 337 337 337 337 337 337 337 337 337 336 336 336 336 336 337 337 337 336 337 336 336 336 336 336 336 335 335 335 335 335 334 333 332 330 328 329 330 330 329 329 329 329 329 329 328 328
306 306 307 308 309 309 309 308 308 309 310 313 315 310 309 311 310 311 312 315 317 314 314 318 319 326 337 339 337 338 340 341 340 338 338 337 338 338 337 337 337 337 337 337 337 337 337 337 336 336 336 336 336 337 337 337 336 336 336 335 336 336 336 336 336 335 335 335 335 335 334 333 332 331 329 328 328 328 327 328 328 327 326 325 325 325
306 306 306 308 309 309 309 309 309 309 310 314 312 308 310 310 309 312 313 315 317 312 313 322 321 320 335 342 336 337 341 341 340 338 337 337 336 337 337 337 337 336 336 337 337 337 337 337 336 336 336 336 336 337 337 336 336 335 335 335 336 336 336 336 335 335 336 336 335 334 334 331 330 330 328 327 327 325 326 327 326 325 324 323 322 322
305 306 306 307 309 309 310 309 308 309 310 312 309 308 309 309 310 313 314 314 314 313 314 321 321 317 331 340 336 339 343 340 340 338 336 336 336 336 336 337 337 336 337 336 336 336 336 337 336 335 336 336 337 336 336 336 335 335 334 335 335 335 335 334 334 335 335 335 335 333 333 331 328 328 327 326 325 324 325 325 324 322 322 321 320 319
306 306 307 308 309 309 310 308 307 310 310 309 308 308 308 311 313 314 318 316 313 317 319 321 325 319 321 332 335 340 342 339 340 339 338 336 334 335 336 336 337 336 337 337 337 336 336 336 335 335 336 337 337 336 336 336 335 335 335 334 334 334 333 333 333 334 334 335 335 333 332 331 329 328 326 325 324 323 324 323 321 320 319 319 318 317
305 306 307 309 309 309 310 308 306 309 310 308 309 310 311 313 312 311 316 314 312 320 320 322 330 322 318 330 335 337 339 338 339 339 339 338 335 335 335 336 337 336 337 337 337 337 337 336 335 335 336 336 337 336 336 336 335 335 335 334 334 333 332 331 332 334 335 334 334 332 331 330 330 329 327 326 324 323 323 322 320 319 318 317 316 316
305 305 306 309 311 309 309 309 306 307 309 308 310 313 311 312 311 310 313 313 315 320 316 319 329 325 326 335 337 337 337 337 338 337 338 338 336 335 335 337 337 336 337 337 337 338 337 337 335 334 336 336 336 336 336 336 335 334 335 334 334 333 332 331 332 333 333 333 333 332 331 331 329 328 327 327 325 323 323 322 320 319 317 316 315 315
306 305 305 307 310 309 309 309 306 306 307 308 309 310 312 313 312 312 313 311 316 319 313 315 326 326 327 331 334 340 337 334 336 336 337 338 337 336 335 337 338 337 338 337 337 338 337 336 335 334 335 336 335 336 335 335 335 334 334 334 334 333 331 331 332 331 331 332 332 331 331 331 329 327 327 328 326 324 323 321 320 318 316 315 314 314
307 309 308 307 309 309 309 309 308 307 307 308 309 310 313 316 315 315 316 314 315 317 313 314 322 325 323 322 331 337 333 332 336 340 343 341 337 337 337 337 339 338 338 337 337 337 336 335 335 335 335 336 336 335 335 335 335 334 334 334 334 332 330 330 331 330 331 332 331 331 331 330 328 326 327 327 326 324 322 320 318 316 315 314 313 313
307 309 309 307 308 309 309 309 308 307 307 306 308 310 310 315 321 320 319 322 321 317 318 320 326 330 325 324 334 338 335 336 341 345 344 341 338 338 339 339 339 339 338 338 337 337 336 335 335 335 335 336 336 335 335 335 334 334 334 334 334 332 330 329 331 330 330 330 331 330 330 328 327 327 327 327 324 322 320 318 317 315 314 313 313 312
307 309 309 306 308 308 309 310 307 308 310 308 307 309 308 312 323 321 315 322 322 315 320 321 323 331 326 325 338 340 339 341 343 344 342 340 339 338 339 339 339 340 338 337 338 337 337 335 335 335 335 335 335 335 335 334 334 334 334 333 333 332 330 330 331 330 329 330 330 329 329 327 327 327 328 326 322 320 318 317 316 314 313 313 312 311
309 312 311 307 307 307 309 310 308 308 310 308 306 309 309 309 319 322 318 322 319 316 321 318 323 336 325 323 341 341 340 342 340 342 341 338 340 339 339 340 339 340 338 337 338 337 336 335 335 335 335 335 335 335 334 334 334 334 334 333 333 332 331 330 330 331 330 331 330 328 328 327 327 327 326 324 321 318 317 316 315 313 312 312 311 310
310 310 309 307 308 307 307 309 309 308 306 308 309 310 311 312 315 317 320 322 316 314 319 314 322 336 323 325 349 345 340 343 339 339 341 339 340 340 339 340 340 340 339 338 339 337 336 335 335 335 335 335 335 335 334 334 334 334 334 334 333 332 331 330 330 331 330 329 329 328 328 327 327 325 323 321 319 317 316 315 314 313 312 312 310 309
311 311 310 308 308 307 306 309 310 308 306 307 309 307 310 315 315 314 318 321 316 317 323 315 317 330 325 331 357 351 338 340 339 339 340 339 340 340 339 340 340 339 339 338 338 337 336 335 335 335 335 335 335 334 334 334 333 334 333 332 332 331 330 330 331 331 328 327 327 327 326 326 324 323 321 319 318 317 316 315 314 313 312 311 310 309
309 312 312 308 307 307 307 308 309 309 307 306 310 309 308 310 313 315 316 316 317 324 328 320 319 329 331 334 347 346 338 338 339 340 340 338 339 339 339 339 339 339 339 338 338 337 336 335 335 335 335 334 334 333 333 333 333 333 332 331 330 330 330 330 330 330 327 325 325 325 324 323 322 320 319 318 317 316 315 314 314 313 311 311 310 309
309 315 317 311 307 307 308 308 308 308 307 308 312 312 311 312 313 313 313 313 316 322 324 324 323 328 331 331 334 337 336 337 338 338 339 339 339 339 339 339 339 339 339 338 337 336 335 335 334 335 334 333 333 332 331 331 331 331 330 329 329 330 330 329 328 329 327 325 324 323 322 321 320 318 318 317 316 316 314 314 313 312 311 310 309 309
314 316 316 313 310 309 309 309 310 309 308 309 311 310 312 316 315 314 319 321 315 312 317 322 322 325 331 328 330 337 338 337 338 338 338 338 339 339 339 339 339 339 338 337 337 336 335 335 335 334 333 332 331 330 330 329 329 329 329 328 327 327 327 327 327 327 326 325 324 322 321 319 318 318 317 316 315 314 313 313 312 311 310 309 309 308
314 311 311 311 310 310 308 308 309 308 308 307 309 310 309 314 318 322 331 329 315 313 318 315 317 329 333 326 332 342 342 341 342 340 340 339 339 339 339 339 339 338 338 337 336 336 335 334 334 333 331 330 329 328 328 328 327 327 327 326 325 324 324 325 326 326 325 324 322 320 319 318 317 317 316 315 314 313 312 311 310 310 309 308 308 308
312 314 316 313 311 310 309 309 307 307 308 308 310 310 307 312 317 320 324 320 313 318 321 316 323 335 331 326 335 343 341 342 343 340 340 339 339 340 339 339 339 338 338 337 337 336 335 335 333 331 330 329 327 327 327 326 326 325 324 324 323 322 322 324 326 324 323 322 320 319 318 317 316 316 315 314 313 311 311 310 309 308 307 307 307 307
311 316 319 317 314 312 311 311 309 308 309 309 311 310 308 310 312 316 320 316 313 317 318 321 329 332 329 332 339 343 341 341 340 338 340 340 340 340 339 339 339 338 337 337 337 336 335 334 332 329 329 327 326 326 325 324 324 324 323 322 322 322 321 322 324 323 321 320 319 317 317 316 315 315 314 313 311 310 309 308 307 306 306 306 307 306
313 315 319 320 318 315 314 314 311 310 310 310 310 310 309 308 310 317 322 320 320 319 319 329 334 326 330 338 339 341 341 339 338 339 339 340 340 340 339 339 338 338 337 336 336 335 334 332 330 328 327 326 325 324 324 323 323 322 321 320 321 322 321 321 322 322 320 319 318 317 316 315 314 314 313 311 310 309 308 307 306 305 305 305 306 306
314 314 318 319 317 316 316 314 311 311 311 311 311 310 310 311 312 315 319 323 326 320 319 336 340 329 332 341 338 339 339 336 337 339 338 340 340 339 339 339 338 338 337 336 336 335 333 331 329 327 326 325 324 323 323 322 322 321 320 319 320 320 319 320 321 320 319 318 317 316 315 314 313 312 311 310 308 307 306 306 305 304 303 304 305 305
318 317 317 316 315 316 313 310 311 312 311 312 313 312 312 316 315 312 320 329 326 320 327 341 341 337 340 342 335 334 336 336 335 337 338 339 340 340 339 339 339 338 337 336 335 334 332 330 328 326 325 324 323 322 321 321 320 320 318 318 320 320 318 320 321 319 318 317 316 315 313 312 311 310 309 308 306 306 305 304 304 303 302 303 305 305
319 321 319 315 317 318 314 310 310 311 312 312 314 314 315 319 317 314 325 331 323 325 339 341 341 346 344 337 333 332 334 337 336 337 339 339 339 339 339 339 339 338 336 335 334 333 331 329 327 326 325 323 322 321 320 319 319 318 317 317 318 318 318 320 319 317 316 315 314 313 312 310 309 308 307 306 305 305 304 304 303 301 302 304 305 304
314 318 323 325 324 319 316 314 310 311 315 314 315 317 315 316 317 319 328 330 325 331 340 334 339 352 344 333 333 333 333 337 338 338 339 339 339 339 339 339 338 337 336 334 333 333 330 328 326 325 324 323 322 321 319 318 318 317 316 316 316 317 318 319 318 316 315 314 313 311 310 308 307 306 306 305 305 304 303 302 301 300 302 304 304 303
314 316 321 329 327 317 318 318 313 314 318 315 316 318 316 317 320 323 328 331 331 338 340 331 336 351 345 332 332 333 334 338 338 338 339 339 339 339 338 339 338 336 336 334 332 332 330 327 326 324 323 322 321 320 319 318 317 316 315 315 315 316 317 317 316 315 314 313 311 309 308 307 306 305 304 304 303 302 301 299 298 299 302 304 303 303
319 321 320 327 326 316 316 318 315 315 316 314 318 323 321 321 322 320 322 327 331 339 343 337 337 345 339 332 336 337 335 337 336 336 339 339 338 339 337 338 337 336 335 334 332 331 329 327 325 323 322 322 320 320 319 318 317 316 315 314 314 315 316 315 314 313 312 311 310 308 307 306 305 304 303 303 302 300 298 297 298 300 303 303 303 302
321 324 322 329 331 317 313 316 315 315 315 317 325 327 321 318 322 322 320 323 327 333 338 337 334 334 332 334 340 337 333 335 336 335 337 338 338 338 337 337 337 335 335 333 332 331 328 325 324 323 322 321 320 319 319 319 318 316 315 314 313 314 315 314 313 312 311 310 309 307 306 305 304 303 302 302 301 299 297 297 299 301 302 303 303 302
321 324 322 328 331 320 318 321 315 314 320 325 327 324 320 319 325 330 326 323 326 329 333 335 331 331 334 336 336 335 333 334 335 335 338 338 337 337 337 337 336 335 334 333 332 331 328 324 323 322 321 321 320 319 318 318 317 315 314 314 313 313 314 313 312 312 310 309 307 306 305 304 303 303 302 301 301 299 297 298 299 301 302 302 302 302
319 325 324 323 321 319 323 324 316 316 322 325 322 319 319 319 322 328 325 321 324 326 330 336 334 331 334 335 333 334 334 334 334 336 337 337 336 337 336 336 336 335 333 332 331 330 327 324 323 321 321 320 319 318 317 316 316 315 313 313 313 313 313 312 311 310 309 308 306 305 304 303 303 302 302 301 300 298 297 298 299 300 301 301 301 302
318 325 328 323 317 320 325 321 320 323 322 324 323 318 317 316 317 328 329 320 321 323 325 334 337 333 334 333 331 333 334 335 337 336 335 336 336 336 336 335 335 333 332 330 329 329 327 324 323 321 320 320 319 317 317 316 315 314 312 312 312 312 311 311 310 309 308 307 305 305 304 303 303 302 301 301 300 298 297 298 299 299 300 301 301 301
314 320 326 324 318 321 324 320 324 326 322 328 332 323 320 319 317 325 330 321 320 323 324 331 338 335 333 333 334 337 338 340 343 339 335 335 335 335 336 335 333 330 329 328 327 326 325 323 322 321 320 319 318 317 317 315 314 313 312 311 311 310 310 310 309 308 307 306 306 306 304 304 304 303 302 302 301 298 296 297 298 299 300 300 300 301
315 318 325 327 325 328 330 325 324 324 320 326 331 324 322 321 317 321 324 321 322 323 323 329 335 334 334 334 336 339 342 349 354 345 334 333 334 334 335 335 332 328 326 327 326 324 324 323 322 320 319 318 317 317 316 315 313 312 311 311 311 310 309 309 308 307 308 309 309 307 305 304 304 304 303 302 300 297 296 295 296 299 300 300 300 300
325 325 325 325 325 329 332 325 320 322 322 321 324 327 324 319 318 320 320 324 329 327 324 329 334 333 334 334 335 340 343 348 348 338 331 332 333 333 332 332 331 327 324 325 325 324 323 322 320 319 317 317 316 316 315 314 312 311 310 310 310 310 309 309 308 308 310 310 307 305 304 304 304 303 303 302 299 297 296 295 296 298 299 299 299 300
326 326 324 324 325 326 328 322 316 321 325 321 323 328 323 318 322 326 327 329 332 328 325 329 332 332 333 335 337 340 337 334 332 329 328 331 333 331 329 326 326 325 324 324 324 323 321 320 319 318 317 316 316 315 314 313 312 311 311 310 309 310 309 308 308 308 309 307 305 304 304 303 303 303 303 302 300 298 297 296 296 297 298 299 299 299
321 321 322 325 321 318 324 325 320 322 324 321 323 324 320 319 325 331 329 328 327 326 327 329 330 332 333 333 335 337 334 332 332 331 329 330 331 331 328 325 324 325 323 322 323 321 320 319 318 317 316 315 315 314 313 313 312 311 310 310 310 309 309 308 308 308 307 306 305 304 303 303 303 303 302 301 300 298 297 296 295 296 297 298 299 299
316 316 319 320 314 315 325 326 322 323 324 320 322 323 321 323 329 333 332 327 325 328 330 330 330 331 332 333 333 334 336 337 337 333 330 329 329 328 327 325 324 323 320 319 320 319 319 318 316 315 315 314 314 314 313 312 312 311 310 310 310 309 309 308 308 308 307 306 305 304 304 303 303 302 302 301 301 300 297 296 295 296 297 298 298 298
314 316 319 319 315 319 324 321 319 325 325 321 322 324 325 324 326 333 336 331 328 331 332 333 334 330 328 333 334 333 336 338 337 334 331 330 328 327 326 325 323 321 319 318 318 319 318 317 315 314 314 314 313 313 313 312 312 310 310 310 309 309 308 308 307 307 306 305 305 304 304 303 302 302 302 302 302 301 297 295 295 296 297 297 297 297
314 315 317 319 317 315 317 320 323 326 324 321 322 324 325 326 327 333 337 334 331 332 330 332 336 333 328 330 332 333 335 336 335 332 330 330 328 325 325 324 321 320 319 318 318 318 317 316 315 313 313 313 313 313 312 313 312 310 309 309 309 308 308 307 307 307 305 305 304 304 304 303 302 302 302 302 302 301 297 295 295 296 296 296 296 296
315 314 315 320 321 318 319 323 324 323 324 325 324 322 324 327 328 333 337 334 331 332 330 328 332 334 330 328 330 332 332 332 334 332 328 327 327 324 323 322 320 318 318 318 317 317 317 316 314 313 312 312 312 312 312 312 312 311 310 309 308 308 308 307 306 306 305 305 304 304 304 303 302 303 303 303 303 301 298 296 295 295 295 295 295 295
318 317 317 320 323 324 327 328 325 323 325 327 327 324 324 326 327 329 333 333 330 332 330 325 328 333 331 327 329 332 329 328 332 332 327 325 325 324 323 322 319 317 318 318 317 317 317 315 313 312 312 311 312 312 312 312 311 310 309 309 308 308 308 306 306 305 304 304 304 304 304 303 303 303 303 303 302 300 299 298 297 295 294 295 295 295
318 316 318 320 322 323 323 325 326 325 324 325 326 326 325 327 328 326 327 330 332 333 330 324 325 331 332 329 329 330 327 326 328 329 328 325 322 322 322 320 317 316 317 318 317 317 317 315 314 313 312 311 311 312 311 311 311 310 309 309 308 308 307 306 305 305 304 304 304 303 303 303 303 303 302 302 301 300 299 300 299 297 295 294 294 295
315 316 318 319 322 322 319 320 323 324 321 321 322 323 324 326 328 327 327 330 333 336 336 330 325 324 327 327 327 327 327 326 325 326 325 323 322 322 320 318 316 316 317 317 316 317 317 315 314 313 312 311 311 311 311 311 310 309 309 308 307 307 306 306 305 304 304 304 303 303 303 303 303 303 302 302 301 301 301 301 301 300 297 295 294 295
318 320 318 318 322 324 323 321 320 320 322 322 321 321 324 325 327 328 328 330 331 333 336 336 330 325 324 323 322 325 328 325 322 323 323 322 322 320 317 315 315 316 316 316 316 316 316 315 314 313 312 311 311 311 311 310 309 309 308 307 307 307 306 305 305 304 303 303 303 302 302 302 302 302 302 301 301 300 301 301 301 302 300 297 295 296
319 320 318 319 322 321 320 319 318 320 325 325 322 323 325 325 328 329 327 327 330 331 332 335 333 330 328 321 315 318 326 325 320 321 323 321 318 317 315 315 316 315 315 315 315 315 315 314 313 312 311 311 311 310 310 309 309 308 307 307 307 307 306 305 304 303 302 302 302 302 302 302 302 302 301 301 301 301 300 300 300 301 301 298 297 298
Wind_Speed
5 4 6 7 6 8 8 8 7 2 5 9 7 5 6 6 5 7 6 6 7 7 7 8 8 8 7 9 11 11 9 7 9 9 8 9 8 10 11 8 8 8 6 7 11 13 14 17 19 20 20 19 19 18 18 20 20 21 22 22 22 21 20 19 20 21 21 21 20 20 19 18 17 16 15 14 13 12 10 8 7 7 6 6 7 6
5 7 8 6 5 8 8 7 8 4 3 5 7 6 5 5 5 6 7 6 6 5 5 7 9 9 8 9 9 10 9 8 11 11 11 13 12 10 11 11 9 6 5 7 9 12 15 16 18 19 18 18 18 17 18 20 21 21 22 23 23 22 20 20 21 21 22 22 22 21 19 18 16 15 15 15 13 11 10 9 9 8 9 9 8 7
6 7 6 6 5 8 9 7 9 8 1 2 3 6 5 4 4 4 5 5 6 5 3 7 9 6 4 4 6 9 10 8 9 10 9 12 14 12 11 10 9 8 8 9 9 11 15 16 17 18 16 17 17 18 19 20 21 20 22 23 24 23 21 20 21 21 22 21 21 20 19 18 16 16 15 15 13 11 12 13 12 11 11 10 9 9
6 5 7 7 5 8 9 9 10 8 3 2 2 5 5 4 3 3 4 4 6 3 3 7 6 1 2 1 3 5 5 3 4 7 5 8 11 11 10 8 8 11 10 10 9 10 13 15 16 16 16 16 17 17 19 20 21 21 22 24 24 23 21 21 21 21 21 20 19 18 18 17 16 16 16 16 15 14 16 17 15 14 12 9 8 9
4 4 8 9 6 8 9 10 12 8 4 2 3 4 4 4 6 5 2 4 4 2 4 8 3 1 1 3 4 3 1 2 4 6 5 6 8 6 7 7 8 10 9 9 10 10 11 13 15 16 16 17 17 17 19 20 21 21 22 23 23 22 22 22 22 21 21 20 19 19 18 17 18 18 17 18 18 18 19 19 17 15 12 10 9 8
4 4 8 11 7 7 8 9 12 9 5 3 3 6 5 6 7 4 4 5 5 1 2 6 4 4 3 6 7 4 4 5 5 7 9 8 7 7 8 9 9 9 8 7 8 9 9 10 13 15 15 17 16 16 18 20 20 21 21 21 22 22 22 23 22 21 21 21 20 20 20 19 19 18 17 19 20 20 20 19 17 15 12 10 9 7
3 5 5 11 10 7 8 7 10 11 7 3 5 7 6 5 4 3 5 5 5 4 4 4 6 3 3 6 9 7 8 9 6 8 11 9 8 8 8 9 9 9 8 7 8 8 8 10 12 13 15 17 15 16 18 19 19 20 21 21 22 23 23 22 21 21 21 21 20 21 20 18 18 18 17 19 21 20 20 18 16 14 11 8 7 6
6 7 4 9 11 8 7 5 8 11 8 3 6 7 6 4 3 3 6 4 3 3 2 2 5 3 3 6 8 9 8 8 7 8 10 11 12 11 9 9 10 10 9 8 8 9 8 10 11 12 15 16 16 16 18 19 19 20 22 22 22 23 22 22 22 22 21 20 21 21 19 18 19 21 21 21 21 20 19 18 15 13 11 8 6 5
7 11 6 7 9 7 6 5 8 11 7 5 6 7 7 6 4 4 6 3 1 2 3 4 3 4 4 4 3 8 9 9 11 11 12 13 15 14 11 10 10 10 10 8 8 9 9 10 12 14 15 16 16 18 18 19 20 20 21 22 21 21 20 21 23 22 21 20 20 19 20 20 20 22 25 23 21 20 18 17 15 12 10 8 6 5
5 10 8 7 7 6 6 5 9 11 6 5 5 6 3 2 4 4 4 2 2 1 5 6 4 4 4 4 2 6 8 10 10 11 13 13 14 14 12 11 11 10 9 9 8 8 9 11 14 15 16 16 17 18 18 19 20 20 20 20 19 18 18 21 22 21 20 20 19 19 22 23 24 24 26 24 22 20 17 16 14 12 10 8 7 6
2 5 7 6 4 5 7 5 7 11 7 5 7 5 4 3 3 3 2 3 2 3 5 7 6 5 3 4 3 6 8 11 11 10 11 12 14 14 12 11 11 10 9 9 8 9 10 13 16 17 16 17 18 19 19 19 19 20 20 19 17 16 16 19 20 20 21 20 19 21 24 25 27 27 26 24 22 20 18 16 15 13 11 9 8 8
5 2 4 5 5 6 9 7 6 9 9 6 5 5 4 2 3 4 3 2 3 5 6 6 6 5 3 5 5 8 10 13 14 12 14 15 15 14 12 11 11 10 9 9 9 9 10 12 15 17 17 16 19 21 21 20 20 20 19 18 16 16 18 19 18 20 22 21 21 23 25 26 27 27 26 25 22 20 18 17 15 13 12 11 10 9
6 4 3 5 8 9 10 8 5 6 9 7 5 6 6 2 1 2 1 1 4 5 4 6 6 3 5 6 7 12 12 13 14 14 15 16 15 13 12 11 10 9 10 9 9 9 9 10 12 16 17 17 19 22 23 22 22 20 18 18 17 19 20 19 18 20 21 20 22 24 25 26 26 26 25 24 22 19 17 16 15 14 13 12 12 12
3 3 4 6 8 9 10 10 7 6 9 9 7 6 6 4 4 5 3 1 3 3 2 3 4 2 4 4 7 13 14 14 15 13 9 8 11 12 11 11 10 10 10 9 9 9 9 9 12 15 17 17 18 21 23 23 21 19 18 19 19 20 21 20 18 19 20 20 22 24 25 26 26 26 25 23 21 18 16 15 14 13 13 13 13 14
4 2 6 7 6 9 11 9 7 6 7 7 4 5 5 4 5 4 3 3 3 1 2 1 3 4 3 4 6 10 10 9 8 6 5 7 8 9 9 11 11 11 11 9 9 9 8 11 14 16 18 19 19 20 22 22 21 20 19 20 20 19 21 23 20 21 22 21 23 26 26 26 27 26 24 22 19 18 16 15 14 14 13 13 15 16
4 3 6 7 5 11 11 5 6 8 5 4 3 6 4 4 5 3 3 5 4 2 0 1 3 3 4 4 3 3 4 4 7 6 8 9 9 10 10 11 11 10 11 10 9 9 9 12 16 18 18 19 19 20 21 22 21 21 19 19 19 18 21 24 22 25 28 25 25 27 26 26 27 25 23 21 20 18 17 15 14 14 14 14 17 17
4 3 5 8 6 11 13 7 6 7 6 3 4 6 5 4 6 5 2 1 3 4 2 2 3 3 2 3 4 2 3 5 8 9 10 11 12 13 11 10 11 10 11 11 11 10 10 13 16 19 19 19 19 20 21 21 21 21 20 18 18 16 19 23 23 27 32 30 27 26 26 26 25 23 22 22 21 19 18 16 15 15 15 16 17 17
5 2 6 10 8 9 12 11 6 5 6 6 5 6 3 4 3 4 2 2 4 4 3 1 4 2 0 2 4 3 5 5 6 9 10 11 13 13 12 11 11 11 11 11 11 10 10 12 15 19 20 19 20 21 21 21 21 21 20 19 18 17 19 24 25 27 29 29 28 26 25 24 23 23 24 23 22 21 20 18 17 16 17 18 17 17
4 1 4 9 10 6 8 11 7 5 4 5 6 5 4 4 2 1 3 1 3 4 2 1 2 3 4 4 2 4 8 9 8 8 10 13 14 13 12 12 12 11 11 11 10 9 10 12 16 19 20 19 20 20 21 21 21 21 21 19 19 19 20 22 24 25 25 26 27 26 25 24 24 25 25 24 23 22 21 20 19 18 18 19 18 18
2 3 1 6 8 6 5 8 9 6 3 2 6 5 2 4 4 2 3 3 3 3 3 1 1 3 5 6 6 10 12 12 11 9 11 15 15 13 13 13 13 12 11 11 10 9 10 13 18 21 20 20 21 21 22 22 22 22 21 20 19 20 19 19 20 22 24 25 27 27 26 25 25 26 25 24 24 22 21 20 19 18 18 19 18 18
1 2 3 3 4 7 6 7 10 10 5 4 6 6 3 2 3 3 1 1 3 3 3 3 1 5 6 5 9 12 12 14 15 15 14 13 13 14 13 14 13 12 12 12 11 10 11 14 18 22 21 21 22 22 23 23 23 23 21 21 21 21 20 20 21 22 22 24 26 27 27 26 26 26 26 25 23 22 21 20 19 18 18 19 18 18
0 1 3 4 4 6 7 5 6 9 8 5 4 5 5 4 4 4 2 1 2 2 3 4 3 7 6 3 5 7 9 12 13 13 11 12 14 14 13 14 13 12 13 13 12 10 10 13 18 21 21 21 22 23 24 23 23 24 23 22 22 22 22 23 23 23 22 22 24 25 27 27 27 26 25 24 23 22 22 21 20 19 19 19 19 18
3 2 2 3 4 5 5 4 8 10 8 5 3 4 5 4 5 6 4 3 1 1 1 4 2 6 5 3 3 3 6 7 5 4 4 7 11 12 13 13 12 12 13 13 12 9 9 14 18 20 21 22 22 23 25 24 24 24 23 23 22 23 24 24 25 24 23 23 24 25 26 27 27 26 25 24 23 22 22 22 21 20 20 20 20 20
3 1 1 1 1 1 2 3 6 9 8 4 4 4 5 5 5 6 5 4 4 2 1 2 2 5 5 5 2 4 6 6 6 7 7 7 8 10 12 12 11 11 12 13 12 9 9 14 17 18 19 20 21 23 25 25 24 24 24 24 23 23 25 26 25 25 24 24 24 25 26 26 27 26 25 24 24 23 24 23 22 22 20 20 21 21
3 1 2 4 4 3 4 4 4 6 7 6 5 4 6 7 6 5 2 2 2 4 4 4 4 6 5 4 1 5 7 7 7 8 9 10 9 10 12 11 10 10 11 13 13 10 11 12 12 14 17 19 21 22 24 25 25 24 24 24 24 24 25 26 26 25 25 25 26 26 26 26 26 25 25 25 25 25 25 24 24 23 21 21 22 22
3 2 3 5 6 6 5 5 4 5 6 4 5 7 7 8 9 5 2 3 2 3 4 5 5 6 4 2 3 5 7 7 7 9 9 9 10 11 11 11 10 9 10 14 13 11 11 11 11 13 17 19 20 21 22 24 25 24 25 25 26 27 26 26 26 26 26 26 27 27 27 26 26 25 25 25 26 26 26 25 25 23 21 21 23 24
1 1 3 5 6 7 7 5 2 5 6 5 7 10 8 8 9 6 5 4 4 3 3 6 6 4 5 1 3 4 7 7 7 9 10 10 12 12 11 11 10 9 9 12 13 11 11 11 11 14 17 19 20 21 22 24 25 24 25 26 27 27 28 28 27 27 27 27 27 27 26 26 25 25 25 25 27 27 27 25 24 22 21 22 23 25
1 2 3 6 7 7 6 7 7 8 8 7 9 11 9 8 9 7 5 5 5 6 4 8 4 4 7 6 7 6 7 8 8 10 11 11 12 12 11 11 11 11 11 12 13 13 12 12 11 13 17 20 21 21 22 24 26 25 25 27 28 28 28 29 29 28 28 27 27 26 26 26 25 25 26 26 27 27 26 25 23 21 21 23 24 26
3 3 4 6 6 5 3 10 13 10 7 8 11 12 9 9 11 11 8 7 7 7 6 7 7 7 8 4 6 6 5 6 7 8 9 10 11 11 12 13 12 12 13 14 15 14 13 13 12 13 18 22 23 23 23 24 26 26 25 28 30 30 29 29 29 29 28 27 27 26 26 26 26 26 26 27 27 27 25 23 22 21 22 24 26 27
2 3 4 5 2 3 2 8 14 12 8 7 9 11 11 11 12 11 8 6 5 4 5 4 7 8 7 3 3 3 3 5 6 7 9 12 12 12 14 14 12 12 13 14 15 14 14 13 13 15 18 21 24 24 23 23 25 27 25 27 30 31 30 30 29 29 28 27 27 27 27 27 27 27 27 27 26 25 24 22 21 21 23 26 28 28
1 3 2 3 4 5 5 2 11 13 10 7 4 5 9 9 7 5 4 4 3 2 2 4 2 6 6 3 3 3 5 7 8 9 11 12 12 13 14 13 13 12 12 13 15 14 14 13 13 14 16 20 23 25 24 23 25 26 25 26 30 31 30 30 29 29 29 28 28 29 29 28 28 28 27 27 26 24 22 21 20 22 25 28 29 29
1 2 0 4 5 2 4 2 9 11 10 8 4 4 7 8 6 4 3 5 6 4 3 5 1 5 5 2 4 5 7 9 9 11 11 10 12 14 14 13 14 13 12 13 14 14 15 15 14 14 16 20 24 26 26 25 25 26 25 26 29 30 30 29 29 29 29 29 30 30 29 29 29 29 28 26 25 22 21 20 21 24 27 29 30 31
2 2 1 3 4 1 4 2 9 10 9 4 2 6 7 4 5 4 1 2 5 6 7 4 5 6 4 5 5 6 8 9 9 9 10 11 12 12 13 13 14 14 14 14 15 15 14 14 15 18 20 22 24 27 30 30 28 27 26 27 28 30 30 29 28 29 29 30 30 30 30 30 30 29 28 26 24 22 21 21 23 25 27 29 30 31
1 3 2 2 4 1 4 1 7 8 6 4 6 6 5 3 6 8 3 3 4 2 3 4 5 3 4 6 7 7 8 8 7 6 7 9 11 11 12 13 13 14 14 13 13 13 11 12 16 22 25 26 25 27 32 34 32 29 28 28 29 30 31 29 29 30 30 31 31 30 30 30 30 30 29 27 25 23 22 22 24 26 27 29 30 31
2 3 2 2 4 3 2 3 7 5 5 6 5 2 3 3 8 10 5 0 2 3 4 4 2 1 2 2 4 6 6 6 7 6 7 9 10 11 13 13 13 14 14 13 14 14 13 16 20 23 25 27 28 28 30 31 31 30 30 30 30 31 32 32 31 31 31 31 30 31 31 31 31 31 29 27 25 24 23 24 25 27 27 28 29 30
1 3 3 3 3 3 2 5 5 4 5 4 4 1 2 2 6 8 6 3 3 3 4 3 1 2 3 3 4 6 6 6 6 4 6 9 11 12 14 14 14 15 15 15 15 15 16 19 22 24 27 29 31 29 28 29 31 31 31 31 31 32 32 32 31 31 31 31 30 31 32 32 32 31 30 28 26 24 24 25 26 27 27 27 28 29
2 3 3 3 3 3 4 3 1 1 4 4 2 1 2 1 2 5 4 1 4 4 4 4 4 4 5 4 5 6 7 7 5 0 4 8 11 11 12 12 12 13 11 11 13 15 19 21 24 27 29 30 30 29 28 30 32 32 30 29 30 31 31 31 31 31 32 31 31 32 32 33 33 32 30 29 26 25 25 26 26 27 27 27 28 28
2 3 4 4 2 2 5 4 3 4 2 4 5 3 2 2 4 6 6 1 5 5 4 4 6 6 5 5 6 7 7 6 2 4 6 8 10 9 8 8 9 10 11 14 16 18 22 25 27 29 31 31 31 30 30 30 32 32 31 30 31 31 31 31 31 32 32 31 31 33 34 34 34 33 32 29 27 27 26 25 25 26 27 27 28 28
7 4 4 6 3 2 5 5 2 2 1 5 7 7 5 2 4 5 7 2 6 6 4 4 6 6 6 6 5 6 6 3 4 5 5 8 9 8 9 8 8 11 15 19 21 22 24 27 29 29 30 31 31 31 31 32 31 30 29 29 31 31 31 32 33 35 35 34 34 36 37 37 37 36 34 30 27 27 25 23 24 26 26 26 27 27
7 5 4 6 4 2 4 3 1 2 1 3 6 7 5 0 5 7 4 4 7 6 4 4 6 6 6 6 4 4 5 4 4 4 5 9 8 8 10 10 10 12 14 17 21 24 27 29 29 28 28 29 30 31 33 32 28 25 24 25 28 30 31 33 35 37 37 35 35 37 38 38 38 37 35 32 29 28 24 22 24 26 26 26 26 26
4 4 3 4 3 3 4 3 0 1 2 4 5 6 5 2 6 6 4 7 5 4 4 4 6 5 5 6 5 2 2 3 3 3 6 10 9 8 9 12 15 17 18 21 23 25 27 28 29 30 29 30 31 33 34 33 29 28 28 26 26 28 29 31 34 36 35 34 34 36 36 36 36 35 34 33 32 30 27 24 23 24 26 27 26 26
3 3 3 3 3 3 3 3 1 1 2 3 5 5 2 3 4 3 5 5 2 4 3 3 6 6 5 5 3 2 2 3 2 2 6 8 9 8 8 10 13 15 18 22 26 28 28 25 25 26 26 28 32 34 35 35 33 32 32 31 29 30 30 33 35 35 34 33 34 35 34 34 34 34 34 33 32 30 28 26 24 24 26 28 27 27
1 1 2 1 1 2 3 4 3 0 2 3 5 3 3 3 5 5 2 1 2 3 1 2 5 5 5 5 3 2 3 5 5 4 6 5 6 8 8 9 11 12 15 19 22 26 27 24 23 24 26 28 32 33 35 36 34 32 32 31 30 31 32 35 36 34 34 34 34 34 34 34 34 34 34 34 31 29 28 27 26 26 28 28 28 27
1 1 0 1 1 3 3 2 1 3 4 4 2 2 1 1 4 5 2 2 1 1 3 3 4 5 5 5 5 2 1 3 3 3 6 5 5 6 7 9 11 13 16 19 22 25 26 24 23 24 26 29 32 33 35 36 32 28 27 27 28 31 33 35 36 35 35 35 34 34 34 34 34 34 35 34 31 28 29 29 29 29 29 28 28 28
1 1 3 2 1 2 3 4 5 4 4 3 1 2 2 4 1 4 4 3 2 1 2 2 2 5 5 5 5 5 3 2 1 1 4 6 6 6 7 8 11 14 17 19 22 25 25 24 24 25 25 28 31 32 34 34 32 29 28 27 30 33 35 35 36 36 35 35 34 34 34 34 34 35 35 34 31 29 31 32 31 30 29 29 29 28
2 0 2 2 1 1 1 2 2 2 2 3 3 1 1 1 1 2 3 3 0 2 1 2 1 4 5 4 5 5 5 4 3 3 3 5 6 6 6 7 9 14 17 19 21 23 24 24 25 26 25 26 29 31 32 32 32 32 31 30 33 35 36 36 36 35 35 35 34 34 35 34 34 34 35 32 29 30 33 33 32 31 30 30 29 28
2 1 2 2 1 2 1 2 3 3 2 3 4 3 2 3 2 1 1 1 3 1 2 2 1 2 3 4 5 6 6 5 5 4 4 5 6 6 7 6 8 13 16 18 20 23 23 22 21 22 23 25 27 29 30 29 30 31 32 33 35 36 36 36 35 34 33 34 34 34 35 35 34 34 33 31 29 31 33 33 31 31 32 32 31 29
2 1 2 1 2 2 2 5 5 4 3 3 1 1 1 3 4 3 2 2 4 3 2 4 4 3 2 3 5 6 5 5 6 5 5 5 5 5 5 5 7 11 14 18 22 23 22 21 21 21 22 23 25 27 28 27 27 29 32 35 36 37 36 35 34 34 33 34 34 34 34 35 35 33 32 31 32 33 34 33 32 32 33 34 34 32
1 2 1 1 2 2 1 2 3 3 4 4 3 1 3 4 3 2 3 3 4 4 3 1 3 5 3 2 4 5 5 5 6 6 5 5 5 5 5 6 8 11 13 16 21 22 20 20 22 22 22 22 24 25 26 25 26 29 33 35 36 37 36 35 34 34 33 33 34 34 33 34 34 34 32 32 32 33 33 33 33 32 32 33 34 32
2 2 1 2 3 1 1 1 0 2 1 1 2 3 4 4 1 0 2 4 4 4 4 4 4 4 4 2 1 3 4 4 4 6 5 5 5 5 6 8 10 11 12 15 17 17 17 18 20 22 22 22 23 25 25 25 27 30 32 34 36 36 36 35 34 33 32 32 33 33 33 34 33 33 33 33 33 32 31 30 31 31 31 32 32 30
2 1 1 3 3 2 4 4 2 2 2 2 3 4 5 3 2 2 2 2 4 4 2 2 4 5 5 5 4 1 1 1 3 6 5 4 6 8 10 12 12 11 12 15 16 14 14 16 18 20 21 22 23 24 24 25 28 30 32 34 36 36 36 35 33 31 30 31 32 33 33 34 33 32 33 33 34 33 30 28 27 28 28 30 30 28
Wind_Direction
158 182 206 200 194 188 186 176 193 228 120 146 149 156 166 152 192 207 200 208 159 159 199 172 179 205 191 191 195 188 181 178 182 181 181 185 186 191 196 198 198 203 198 182 187 190 190 194 198 202 205 202 200 202 199 195 195 194 193 192 189 190 194 193 190 188 185 182 175 167 160 154 150 149 147 144 149 154 157 165 166 162 161 156 144 138
170 205 211 194 183 172 167 165 193 234 60 124 149 164 180 163 190 207 198 202 168 165 204 174 177 203 205 197 189 180 179 186 187 184 186 190 193 195 197 199 196 192 171 166 184 189 188 193 196 200 203 200 196 196 197 196 195 194 193 192 190 190 193 195 191 185 182 180 174 165 157 151 143 141 143 140 142 146 147 150 150 147 146 144 139 144
201 216 186 175 173 153 153 157 187 214 183 76 130 151 180 197 189 203 214 200 170 178 213 179 178 205 233 195 179 185 191 198 194 193 196 191 192 194 196 197 188 179 172 175 187 188 188 190 192 196 197 195 194 194 195 193 191 190 190 192 191 191 193 193 190 186 182 178 175 168 158 150 140 135 140 138 138 143 143 141 141 141 141 142 143 147
204 209 159 166 158 141 153 159 178 207 195 99 103 136 177 218 176 178 224 188 154 156 159 161 167 196 1 95 186 211 206 191 185 204 221 203 200 200 195 193 186 184 181 181 186 187 187 186 187 191 189 187 189 190 189 185 183 183 185 189 190 191 193 190 186 183 178 172 167 159 150 147 139 134 138 136 137 144 142 138 138 140 142 144 147 149
231 221 158 162 161 147 155 163 174 196 206 176 163 158 172 198 184 177 187 146 110 60 115 123 110 297 172 168 207 214 173 170 172 192 219 216 210 202 195 198 196 193 187 183 183 185 186 181 183 186 182 181 182 185 184 180 179 178 180 185 187 189 188 184 179 174 171 164 154 144 136 133 129 129 135 134 133 136 137 136 136 138 142 148 152 151
254 251 161 163 176 160 159 170 178 182 185 192 214 209 188 172 181 167 122 121 112 165 207 132 134 262 223 196 211 187 183 206 186 193 210 210 199 191 196 202 197 194 192 187 183 186 185 174 175 177 174 176 179 181 180 177 176 175 176 180 183 185 182 178 173 169 165 156 149 144 135 127 125 126 133 137 136 136 135 134 134 133 137 144 147 146
233 254 173 169 177 163 166 176 182 176 162 188 229 213 190 158 169 135 107 122 153 202 242 169 164 243 260 218 215 196 202 209 195 203 211 209 206 202 202 202 197 195 191 186 183 185 184 172 170 170 169 173 175 174 172 171 172 173 176 182 183 182 178 173 169 165 159 154 154 156 151 148 146 139 137 141 143 140 137 134 132 131 132 134 137 139
183 217 221 179 174 170 179 180 182 171 154 220 234 186 177 182 195 131 103 122 184 195 266 214 148 154 243 234 209 192 204 213 209 217 213 211 214 212 207 201 197 196 190 184 182 184 185 177 168 163 166 171 171 167 165 167 171 177 183 186 184 179 174 170 166 165 167 170 171 168 164 166 162 151 145 145 143 140 138 134 132 132 132 129 129 132
173 201 211 182 181 184 180 168 166 156 153 230 220 169 179 197 175 115 97 117 141 129 228 247 166 162 246 275 189 176 196 212 216 220 217 213 213 212 209 202 196 193 190 183 179 181 182 174 165 161 164 168 168 164 165 169 176 184 188 187 183 175 168 164 165 171 182 186 180 172 168 165 159 152 149 147 143 141 139 135 133 133 131 127 126 128
179 196 192 175 190 186 162 158 159 154 166 205 169 139 146 165 135 109 109 111 58 100 220 224 183 166 262 287 151 165 196 212 217 220 219 214 211 211 208 202 192 185 185 182 175 174 176 171 163 160 160 162 163 165 169 174 180 188 190 188 180 166 159 160 165 175 182 183 178 172 168 163 156 151 148 146 143 141 140 137 135 133 129 128 127 124
237 189 182 175 189 171 153 163 167 164 167 145 128 109 72 58 78 84 71 83 89 266 244 216 183 157 236 266 185 174 193 199 206 217 217 211 210 209 205 198 188 181 182 176 168 165 166 164 161 160 158 156 159 165 171 176 182 190 192 187 171 156 157 157 162 176 178 177 179 174 170 165 159 155 152 148 144 143 144 139 135 132 130 128 124 118
269 217 189 169 162 160 153 169 188 176 168 141 129 126 112 73 39 48 16 60 175 245 256 212 171 139 213 252 210 203 205 197 199 209 210 205 203 201 198 192 183 180 177 169 166 162 158 158 161 161 158 155 157 162 170 178 185 190 189 183 163 148 152 155 168 186 181 175 177 174 171 168 163 161 158 153 150 150 148 142 137 135 132 128 121 114
255 245 226 165 165 173 161 165 190 188 180 168 154 138 136 156 113 151 229 178 193 244 259 188 152 134 238 241 206 207 217 208 203 211 210 201 194 190 189 185 178 175 173 171 169 165 162 162 163 162 159 158 159 164 172 181 187 188 185 184 169 149 150 159 174 182 173 169 174 172 170 169 166 164 162 159 157 155 152 147 144 141 137 130 123 118
212 239 232 183 173 183 174 170 179 189 188 182 174 159 154 155 161 192 213 121 183 237 275 195 170 196 263 263 204 200 215 215 208 213 204 180 177 180 180 175 170 172 174 174 171 167 169 166 163 163 162 162 164 167 174 180 185 185 185 191 179 155 151 161 172 172 168 174 178 174 173 172 171 168 164 163 163 160 157 152 146 142 138 131 126 124
167 211 218 194 174 179 186 185 163 147 170 181 151 130 146 153 159 185 190 158 179 219 324 262 193 178 193 242 219 208 227 221 199 185 132 127 152 162 168 171 170 173 172 170 170 169 168 165 163 162 163 167 169 168 171 177 182 183 186 191 181 160 151 158 168 169 170 178 179 175 175 174 172 168 163 163 166 165 158 151 144 139 136 132 130 130
173 253 218 194 180 175 182 190 138 123 155 191 116 125 176 181 145 127 163 171 159 128 71 207 210 213 203 243 276 245 237 183 149 137 129 138 148 152 165 173 173 175 171 168 170 168 164 162 162 162 165 171 171 168 170 175 180 180 183 188 183 169 156 157 164 163 165 176 179 176 176 175 172 167 163 164 164 161 155 148 143 137 135 135 134 135
166 272 213 179 191 186 176 177 173 156 160 167 148 170 188 149 121 109 155 171 103 144 234 211 211 286 295 279 328 30 142 148 144 148 149 151 152 156 169 174 174 176 171 171 171 165 162 160 162 164 167 170 170 171 174 177 180 179 180 184 183 176 160 159 166 162 162 172 175 173 175 175 171 167 167 167 162 155 150 145 141 136 136 137 138 139
158 250 221 176 187 205 176 168 198 197 154 145 184 195 154 101 95 103 125 16 71 167 255 211 186 247 238 252 324 71 132 159 163 159 153 154 158 165 172 172 173 173 169 170 166 161 160 158 160 164 168 171 171 175 178 178 178 178 180 183 184 182 170 164 166 164 163 168 170 170 172 172 170 169 169 166 158 154 149 144 141 139 139 141 142 141
160 168 245 184 180 196 168 165 196 234 193 156 175 183 143 153 200 101 127 129 123 171 247 291 218 230 194 220 253 165 175 182 174 162 158 165 169 170 169 168 168 166 167 166 161 159 159 159 161 163 167 170 171 175 176 173 173 174 177 182 185 187 178 166 161 161 162 164 166 168 169 169 170 168 165 160 156 154 149 145 144 143 143 144 145 144
152 128 210 202 180 153 151 176 188 205 227 155 156 164 159 159 169 163 147 154 158 174 196 187 315 260 225 222 204 192 191 180 171 174 178 179 176 169 166 167 169 170 170 167 162 160 159 160 162 162 164 166 169 172 169 167 169 171 174 178 180 181 173 163 161 162 161 159 160 162 163 166 166 163 160 157 156 153 149 148 148 147 148 148 148 150
10 125 152 193 163 142 172 204 190 179 172 160 165 169 170 106 113 160 171 124 136 151 173 153 220 259 246 217 203 201 191 179 178 184 186 181 173 169 167 167 170 173 171 165 161 159 159 157 157 158 159 162 165 165 162 164 167 169 173 175 176 175 168 161 162 165 162 156 155 156 158 160 159 157 157 156 155 152 149 151 151 150 152 151 152 156
194 131 145 157 158 170 193 195 167 169 165 154 158 170 169 127 109 150 209 291 106 132 176 153 188 257 256 229 223 207 186 189 190 186 184 176 170 169 167 166 169 170 168 164 159 156 156 155 153 152 153 157 159 157 158 161 163 165 170 171 172 171 167 162 161 163 162 157 154 154 154 156 155 155 156 155 154 152 152 153 154 155 155 153 155 158
167 122 129 169 191 200 198 156 147 161 153 137 157 177 164 134 121 146 188 232 186 122 159 135 176 254 263 269 248 179 167 183 178 151 152 164 166 163 160 163 163 163 165 160 155 153 153 154 153 150 151 156 156 154 155 159 160 163 166 168 168 165 163 162 161 162 162 159 156 155 153 154 154 157 157 155 154 154 154 156 157 159 159 156 157 158
169 152 115 134 161 351 7 90 142 154 144 151 200 177 156 165 150 146 171 184 179 193 162 129 237 258 281 294 251 144 132 137 132 125 131 145 155 156 157 160 157 157 160 156 152 153 150 149 150 149 151 154 154 154 156 158 160 161 163 165 163 160 160 160 160 161 161 160 157 156 155 154 155 157 157 155 155 156 157 158 159 161 161 159 159 159
195 200 101 119 129 82 46 75 135 172 171 181 200 171 167 173 142 122 136 127 173 206 157 145 230 253 282 312 44 121 117 120 129 135 140 146 153 156 159 162 157 151 154 153 149 149 150 149 149 150 153 153 153 155 157 158 160 161 162 162 161 159 158 158 160 162 160 158 156 154 155 154 155 157 157 156 157 158 160 161 161 162 163 162 161 159
197 204 110 131 154 156 163 166 170 182 175 169 169 167 182 178 156 149 124 112 205 220 141 155 223 260 292 10 90 120 125 125 133 139 143 148 153 156 158 162 160 151 152 153 147 145 149 148 148 150 151 151 152 155 157 157 159 160 161 161 162 161 157 156 160 161 159 157 154 153 155 156 158 159 159 159 159 160 162 162 162 163 164 164 162 159
99 237 163 157 172 177 179 183 158 136 141 156 164 169 188 187 168 148 113 145 195 170 172 215 215 258 288 189 147 156 139 135 141 144 148 151 152 154 155 157 157 153 153 150 145 145 148 147 149 149 148 149 151 155 157 156 157 159 159 159 161 161 158 157 158 158 158 157 155 156 157 159 161 162 162 162 162 162 163 163 164 164 164 165 164 160
82 286 221 177 190 206 180 158 150 139 143 151 155 170 192 183 159 146 154 195 168 131 225 251 196 213 256 214 187 190 158 152 161 158 156 154 151 152 151 151 150 151 154 153 150 152 152 151 151 149 149 149 151 155 157 158 159 160 161 159 158 159 159 157 157 158 159 159 158 159 160 162 164 164 163 163 162 163 163 163 165 165 165 166 165 162
143 256 234 180 197 245 200 157 153 145 143 147 152 168 178 164 162 173 194 206 161 149 224 234 171 199 247 231 196 191 159 151 158 153 147 144 145 148 150 151 150 151 155 155 154 157 157 156 156 155 155 153 154 157 158 157 158 161 162 160 160 162 162 159 159 160 161 161 161 161 162 163 163 163 163 162 162 163 163 163 166 166 166 166 164 162
146 245 218 171 147 347 324 163 153 143 133 138 154 166 166 162 171 180 191 196 176 194 238 190 175 221 247 227 188 180 137 117 121 130 139 146 152 152 153 156 155 154 156 155 155 160 161 161 162 160 159 157 156 156 157 157 158 161 164 161 160 163 163 162 162 161 161 161 161 162 163 162 162 162 162 162 163 163 164 165 168 168 167 166 165 163
175 245 214 136 90 29 356 142 150 147 136 119 113 136 144 144 145 150 157 155 160 253 326 94 153 258 262 207 155 143 132 124 128 141 149 153 155 154 156 159 157 156 159 159 159 162 162 161 163 162 159 159 157 155 157 159 159 161 165 163 160 162 163 164 163 162 161 161 161 162 162 161 161 161 162 163 164 164 165 168 169 169 168 166 165 163
184 230 18 77 88 35 346 78 135 133 117 102 82 112 136 139 137 149 173 170 172 173 96 80 126 261 260 187 126 125 134 138 144 152 155 158 159 158 159 161 160 160 163 163 164 166 165 164 163 161 158 158 158 157 158 160 160 163 167 165 162 162 162 164 164 162 162 161 161 161 162 161 161 161 162 164 164 164 166 169 170 170 168 167 166 164
153 147 132 94 101 2 329 109 127 114 104 110 209 176 157 151 143 141 162 208 189 154 128 144 226 230 195 151 137 142 151 155 158 160 161 161 160 159 159 160 163 166 168 171 171 170 168 165 161 159 158 161 164 162 161 163 165 167 168 166 163 160 160 161 162 161 160 161 161 162 162 162 161 161 162 163 163 164 166 169 170 170 170 168 167 165
110 113 135 125 116 85 316 94 114 110 134 213 236 181 162 175 151 140 151 217 217 181 168 220 249 220 169 161 159 161 162 157 153 153 156 158 159 159 161 164 168 170 172 174 172 168 164 160 161 162 162 164 167 165 165 167 169 169 168 166 162 159 159 161 161 161 161 161 162 163 162 162 162 162 162 163 164 164 166 169 170 170 170 169 168 167
339 90 115 75 108 126 330 68 105 136 207 245 277 206 171 176 142 120 98 124 275 296 275 272 291 119 122 130 141 140 137 138 139 140 149 160 163 161 163 170 173 172 174 176 174 172 167 164 165 164 162 163 166 168 168 167 167 167 167 167 163 160 161 162 162 163 162 161 161 162 162 163 162 162 162 164 165 165 167 170 171 170 171 170 169 169
277 113 117 52 86 127 70 74 123 203 251 303 344 29 136 133 108 91 68 13 317 279 240 231 210 119 91 76 108 122 120 117 115 127 160 165 167 169 171 176 179 179 181 181 178 174 168 167 165 161 161 164 167 169 168 165 166 167 166 166 164 161 162 163 162 161 162 161 162 163 163 163 162 162 164 164 164 166 168 171 171 171 171 171 170 170
185 128 115 57 60 128 115 88 80 348 343 350 9 110 140 172 143 120 112 318 293 264 222 195 162 132 111 99 110 123 114 96 84 22 207 178 173 178 177 175 177 179 177 171 170 167 164 163 162 161 163 165 166 168 168 167 168 167 164 163 162 161 162 162 161 162 163 162 161 162 164 164 164 164 165 165 166 169 171 172 173 174 173 172 170 170
70 98 126 107 58 83 102 86 41 43 14 264 258 274 297 243 193 142 112 13 289 274 241 185 151 135 130 128 134 133 108 92 131 226 221 188 176 173 167 160 162 164 158 156 158 159 159 160 162 165 166 166 166 169 169 169 168 165 162 163 162 162 162 162 162 163 161 160 164 168 169 169 169 169 168 169 171 171 171 173 177 177 176 175 173 171
37 44 89 94 65 53 97 104 106 116 181 248 263 288 307 249 177 117 86 359 278 279 271 194 161 151 146 145 152 139 110 115 228 238 204 181 172 159 154 153 152 157 162 164 162 160 160 162 164 166 168 167 167 168 169 171 169 164 162 162 163 163 164 165 166 165 164 168 175 175 173 173 174 173 171 171 172 171 170 174 179 180 180 179 177 172
19 12 43 72 71 75 92 94 166 185 210 262 267 287 301 176 113 93 94 250 265 282 276 204 170 165 156 149 157 143 128 159 237 254 187 167 161 156 158 161 160 159 159 162 163 162 161 162 162 164 168 168 166 166 169 169 163 157 159 162 164 167 170 170 168 167 170 175 175 172 172 174 174 173 172 172 173 171 170 173 178 182 183 182 179 175
8 10 50 82 86 81 88 93 142 231 248 270 275 286 299 19 76 91 182 227 256 287 266 199 170 172 170 164 162 152 157 201 251 249 171 157 155 160 162 159 161 162 160 160 162 161 160 163 167 168 171 170 165 166 167 162 156 158 163 167 172 175 174 170 167 168 171 172 169 170 172 173 173 173 174 175 174 171 169 170 175 182 187 184 180 177
8 10 29 57 67 63 90 103 70 302 261 276 289 293 323 63 100 175 218 216 232 284 280 194 178 185 185 178 156 79 341 306 335 100 145 154 154 154 152 151 153 157 159 160 162 162 162 164 167 167 167 167 166 166 165 162 162 166 169 173 179 180 175 169 168 169 170 169 169 171 172 172 174 175 175 175 174 171 169 169 171 180 188 186 180 178
68 55 12 343 149 96 62 64 65 136 248 299 325 345 40 96 172 206 238 177 200 236 232 171 196 197 187 192 184 78 15 348 10 91 131 145 145 144 149 153 150 149 154 156 161 164 162 159 161 163 163 166 167 167 168 168 168 170 173 177 180 177 172 169 169 169 169 168 169 171 172 173 174 175 174 176 176 173 171 170 170 177 184 184 179 176
79 122 143 251 179 110 75 56 170 201 243 295 356 78 40 308 183 170 116 50 348 188 135 156 216 214 190 194 204 201 2 353 4 113 131 131 142 151 154 156 153 153 158 159 162 165 162 158 159 160 163 167 169 171 173 173 170 169 174 177 175 172 170 169 169 168 168 168 169 170 172 174 175 176 177 178 178 176 174 172 171 173 179 181 178 176
335 216 168 153 167 146 162 207 225 230 257 295 41 122 320 331 282 159 132 78 359 314 124 102 246 224 205 192 197 214 237 254 271 216 158 152 161 166 163 163 161 159 160 161 164 166 163 159 157 157 162 169 172 174 176 177 172 169 173 175 172 170 170 169 168 168 167 168 169 170 171 173 174 177 179 180 181 181 177 173 170 171 175 178 178 177
302 261 135 129 301 301 198 230 275 322 332 342 349 290 266 347 295 189 125 97 300 243 138 43 319 225 208 189 192 219 230 207 205 242 202 164 162 165 163 161 160 158 159 161 163 165 163 160 159 159 161 168 174 175 177 179 177 174 174 174 172 172 172 170 169 168 167 168 170 171 172 172 173 176 180 183 187 186 181 176 172 171 175 178 179 178
312 72 88 73 49 62 68 285 311 342 340 342 354 1 27 31 331 260 152 194 282 277 129 136 207 217 191 184 205 232 234 196 185 209 199 168 167 171 166 163 162 162 162 163 164 164 162 159 160 161 161 167 174 177 178 180 180 177 174 173 173 173 173 171 169 167 167 169 170 172 173 173 174 177 181 185 188 186 183 180 177 176 178 180 180 179
316 37 36 44 76 90 235 262 284 307 307 313 344 30 1 351 338 330 322 293 306 334 135 158 155 142 155 187 210 231 239 211 190 195 190 173 169 167 165 167 166 163 163 164 165 166 164 162 163 165 165 168 174 176 176 177 178 177 175 174 174 173 171 170 169 169 169 170 172 173 175 176 177 180 182 184 187 186 185 183 182 182 184 186 186 184
295 341 332 93 63 23 295 286 329 356 359 359 5 313 279 291 305 330 348 357 356 354 359 61 110 126 148 210 220 211 221 220 199 186 180 172 167 163 156 152 155 159 161 163 167 169 169 167 167 166 166 168 171 173 174 174 176 177 176 174 173 172 170 169 170 170 170 172 172 174 176 177 179 182 183 184 186 189 190 189 190 190 191 193 193 192
8 5 2 88 84 74 248 255 63 110 133 324 343 326 307 294 248 77 26 25 8 344 340 355 18 66 81 21 280 207 218 231 191 165 161 158 154 149 140 139 145 152 155 159 165 169 168 167 167 165 164 167 169 170 172 173 174 176 176 174 173 173 172 170 169 170 171 172 173 175 177 178 180 183 184 184 186 187 189 192 195 197 198 197 197 197
90 111 146 132 146 225 264 262 223 144 161 232 252 290 305 302 146 120 73 10 324 310 302 332 351 15 37 24 5 8 189 191 148 136 126 123 133 139 141 143 143 141 145 154 158 158 158 162 165 164 162 165 169 170 171 173 174 175 176 176 175 176 174 171 169 170 172 173 174 176 178 179 180 182 184 184 186 186 186 188 192 198 202 202 199 198